User: anonymous   Login
Location: Newark
(46.3567°N, 6.1428°E)
Time: 11:13:24
(UTC+00:00)
Language:

BEESAT 2 - Orbit

View from above orbital plane
View from above orbital plane
View from above satellite
View from above satellite

Ground track
Ground track

The orbit data is extracted from the following two-line orbital elements,

1 39136U 13015G   20217.79008252  .00000987  00000-0  58140-4 0  9993
2 39136  64.8718 150.4368 0033317 274.5219  85.2102 15.17652588402846
Epoch (UTC): 04 August 2020 18:57:43
Eccentricity: 0.0033317
inclination: 64.8718°
perigee height: 490 km
apogee height: 536 km
right ascension of ascending node: 150.4368°
argument of perigee: 274.5219°
revolutions per day: 15.17652588
mean anomaly at epoch: 85.2102°
orbit number at epoch: 40284

The dashed part of the orbit path shows where the satellite is in the earth's shadow,  

DLR